Location: Asheville, NC
(35.6000°N, 82.5500°W)
Time: 05:46:58
(UTC-04:00)

KKS-1 - Pass Details

Date: 10 January 2018
Orbit: 637 x 651 km, 98.4° (Epoch: 20 April)

Event Time Altitude Azimuth Distance (km) Brightness Sun altitude
Rises 18:41:46 0° 359° (N) 2,945 ? -13.3°
Reaches altitude 10° 18:44:13 10° 348° (NNW) 2,034 ? -13.7°
Maximum altitude 18:47:57 27° 290° (WNW) 1,220 ? -14.5°
Drops below altitude 10° 18:51:42 10° 232° (SW) 2,031 ? -15.2°
Sets 18:54:08 0° 221° (SW) 2,939 ? -15.7°
